Regional Weather Roundup
Issued by NWS Raleigh/Durham, NC

Home | Current Version | Previous Version | Text Only | Print | Product List | Glossary On
Versions: 1 2 3 4 5 6 7 8 9 10 11 12 13 14 15 16 17 18 19 20 21 22 23 24 25 26 27 28 29 30 31 32 33 34 35 36 37 38 39 40 41 42 43 44 45 46 47 48 49 50
000
ASUS42 KRAH 292110
RWRRAH
NORTH CAROLINA WEATHER ROUNDUP
NATIONAL WEATHER SERVICE RALEIGH NC
500 PM EDT SAT AUG 29 2015

NOTE: "FAIR" INDICATES FEW OR NO CLOUDS BELOW 12,000 FEET WITH NO
SIGNIFICANT WEATHER AND/OR OBSTRUCTIONS TO VISIBILITY.

NCZ001-053-055-056-065-067-292200-
WESTERN NORTH CAROLINA

CITY           SKY/WX    TMP DP  RH WIND       PRES   REMARKS
ASHEVILLE      FAIR      79  54  41 S9        30.21F
JEFFERSON      FAIR      72  54  52 CALM      30.26F
MORGANTON      FAIR      83  55  37 S3        30.21F
HICKORY        FAIR      81  56  42 CALM      30.17F
RUTHERFORDTON  FAIR      84  54  35 S5        30.16F
MOUNT AIRY     FAIR      82  62  50 S8        30.19F
BOONE          FAIR      73  55  53 CALM      30.27F
$$

NCZ021-022-025-041-071-084-088-292200-
CENTRAL NORTH CAROLINA

CITY           SKY/WX    TMP DP  RH WIND       PRES   REMARKS
CHARLOTTE      CLOUDY    83  55  38 SE5       30.16F
GREENSBORO     PTSUNNY   82  56  40 CALM      30.16F
WINSTON-SALEM  FAIR      82  57  42 SE7       30.18F
RALEIGH-DURHAM PTSUNNY   85  58  39 CALM      30.15F
FORT BRAGG     FAIR      85  58  39 NE6       30.12F
FAYETTEVILLE   FAIR      84  56  38 NE6       30.13F
BURLINGTON     FAIR      84  59  42 SW3       30.15F
LAURINBURG     FAIR      84  54  35 NE8       30.14F
$$

NCZ011-015-027-028-043-044-047-080-103-292200-
NORTHEASTERN NORTH CAROLINA

CITY           SKY/WX    TMP DP  RH WIND       PRES   REMARKS
ROCKY MT-WILSO FAIR      87  53  31 N5        30.14F
GREENVILLE     FAIR      82  63  51 E7        30.15F
WASHINGTON     FAIR      80  62  54 NE6       30.14S
ELIZABETH CITY FAIR      79  63  57 NE13      30.15F
MANTEO         CLOUDY    77  65  66 NE12      30.13F
CAPE HATTERAS  CLOUDY    79  70  74 NE10G20   30.11F
$$

NCZ078-087-090-091-093-098-101-292200-
SOUTHEASTERN NORTH CAROLINA

CITY           SKY/WX    TMP DP  RH WIND       PRES   REMARKS
LUMBERTON      FAIR      85  58  39 NE8       30.12F
GOLDSBORO      FAIR      85  59  41 NE6       30.13F
KINSTON        FAIR      84  61  45 N7        30.14F
KENANSVILLE      N/A     84  57  39 CALM      30.14F
NEW BERN       FAIR      83  62  49 NE12      30.13F
CHERRY POINT   PTSUNNY   85  65  51 NE14      30.12F
BEAUFORT       FAIR      80  71  74 NE9       30.11F
JACKSONVILLE   FAIR      85  61  44 N13       30.11F
WILMINGTON     CLOUDY    86  67  52 N8        30.11F
$$




USA.gov is the U.S. government's official web portal to all federal, state and local government web resources and services.